Tracking 31011 objects as of 13-Jul-2025
HD Live streaming from Space Station
objects crossing your sky now

SL-14 DEB

Track SL-14 DEB now!
10-day predictions


NORAD ID: 26015
Int'l Code: 1991-068AA
Perigee: 1,369.0 km
Apogee: 1,472.2 km
Inclination: 82.5 °
Period: 114.1 minutes
Semi major axis: 7791 km
RCS: 0.084 m2 (small)
Launch date: September 28, 1991
Source: Commonwealth of Independent States (former USSR) (CIS)
Launch site: PLESETSK MISSILE AND SPACE COMPLEX (PKMTR)

Note: This is SATELLITE DEBRIS
Your satellite tracking list
Your tracking list is empty




NASA's NSSDC Master Catalog

Two Line Element Set (TLE):
1 26015U 91068AA  25193.78232895  .00000034  00000-0  13173-3 0  9997
2 26015  82.4808 136.0104 0066237 216.9231 168.5277 12.62294621554958
Source of the keplerian elements: AFSPC